owner,sensor,date,latitude,longitude,vertical_datum,mass_concentration_of_oxygen_in_sea_water,qcFlag 
SCCF RECON,ioos:station:SCCF:13:1,2008-10-01T19:00:00Z,26.5255,-82.0032,1.0,-9999.0,1111122 
SCCF RECON,ioos:station:SCCF:13:1,2008-10-01T20:00:00Z,26.5255,-82.0032,2.54,4.73,1111122 
SCCF RECON,ioos:station:SCCF:13:1,2008-10-01T21:00:00Z,26.5255,-82.0032,2.53,4.81,1111122 
SCCF RECON,ioos:station:SCCF:13:1,2008-10-01T22:00:00Z,26.5255,-82.0032,2.478,4.6,1111122 
SCCF RECON,ioos:station:SCCF:13:1,2008-10-01T23:00:00Z,26.5255,-82.0032,2.39,4.86,1111122 
SCCF RECON,ioos:station:SCCF:13:1,2008-10-02T00:00:00Z,26.5255,-82.0032,2.34,4.71,1111122 
SCCF RECON,ioos:station:SCCF:13:1,2008-10-02T01:00:00Z,26.5255,-82.0032,2.32,5.08,1111122 
SCCF RECON,ioos:station:SCCF:13:1,2008-10-02T02:00:00Z,26.5255,-82.0032,2.35,5.11,1111122 
SCCF RECON,ioos:station:SCCF:13:1,2008-10-02T03:00:00Z,26.5255,-82.0032,2.43,3.83,1111122 
SCCF RECON,ioos:station:SCCF:13:1,2008-10-02T04:00:00Z,26.5255,-82.0032,2.55,4.09,1111122 
SCCF RECON,ioos:station:SCCF:13:1,2008-10-02T05:00:00Z,26.5255,-82.0032,2.63,4.59,1111122 
SCCF RECON,ioos:station:SCCF:13:1,2008-10-02T06:00:00Z,26.5255,-82.0032,2.688,4.62,1111122 
SCCF RECON,ioos:station:SCCF:13:1,2008-10-02T07:00:00Z,26.5255,-82.0032,2.71,4.6,1111122 
SCCF RECON,ioos:station:SCCF:13:1,2008-10-02T08:00:00Z,26.5255,-82.0032,2.68,4.32,1111122 
SCCF RECON,ioos:station:SCCF:13:1,2008-10-02T09:00:00Z,26.5255,-82.0032,2.582,4.23,1111122 
SCCF RECON,ioos:station:SCCF:13:1,2008-10-02T10:00:00Z,26.5255,-82.0032,2.45,4.23,1111122 
SCCF RECON,ioos:station:SCCF:13:1,2008-10-02T11:00:00Z,26.5255,-82.0032,2.35,4.64,1111122 
SCCF RECON,ioos:station:SCCF:13:1,2008-10-02T12:00:00Z,26.5255,-82.0032,2.262,4.94,1111122 
SCCF RECON,ioos:station:SCCF:13:1,2008-10-02T13:00:00Z,26.5255,-82.0032,2.178,5.1,1111122 
SCCF RECON,ioos:station:SCCF:13:1,2008-10-02T14:00:00Z,26.5255,-82.0032,2.11,4.96,1111122 
SCCF RECON,ioos:station:SCCF:13:1,2008-10-02T15:00:00Z,26.5255,-82.0032,2.1,5.07,1111122 
SCCF RECON,ioos:station:SCCF:13:1,2008-10-02T16:00:00Z,26.5255,-82.0032,2.19,5.15,1111122 
SCCF RECON,ioos:station:SCCF:13:1,2008-10-02T17:00:00Z,26.5255,-82.0032,2.312,5.15,1111122 
SCCF RECON,ioos:station:SCCF:13:1,2008-10-02T18:00:00Z,26.5255,-82.0032,2.387,4.98,1111122 
SCCF RECON,ioos:station:SCCF:13:1,2008-10-02T19:00:00Z,26.5255,-82.0032,2.42,4.6,1111122 
SCCF RECON,ioos:station:SCCF:13:1,2008-10-02T20:00:00Z,26.5255,-82.0032,2.45,4.54,1111122 
SCCF RECON,ioos:station:SCCF:13:1,2008-10-02T21:00:00Z,26.5255,-82.0032,2.46,4.97,1111122 
SCCF RECON,ioos:station:SCCF:13:1,2008-10-02T22:00:00Z,26.5255,-82.0032,2.43,4.79,1111122 
SCCF RECON,ioos:station:SCCF:13:1,2008-10-02T23:00:00Z,26.5255,-82.0032,2.4,4.28,1111122 
SCCF RECON,ioos:station:SCCF:13:1,2008-10-03T00:00:00Z,26.5255,-82.0032,2.34,4.83,1111122 
SCCF RECON,ioos:station:SCCF:13:1,2008-10-03T01:00:00Z,26.5255,-82.0032,2.321,4.72,1111122 
SCCF RECON,ioos:station:SCCF:13:1,2008-10-03T02:00:00Z,26.5255,-82.0032,2.36,4.76,1111122 
SCCF RECON,ioos:station:SCCF:13:1,2008-10-03T03:00:00Z,26.5255,-82.0032,2.42,3.58,1111122 
SCCF RECON,ioos:station:SCCF:13:1,2008-10-03T04:00:00Z,26.5255,-82.0032,2.5,4.0,1111122 
SCCF RECON,ioos:station:SCCF:13:1,2008-10-03T05:00:00Z,26.5255,-82.0032,2.58,4.07,1111122 
SCCF RECON,ioos:station:SCCF:13:1,2008-10-03T06:00:00Z,26.5255,-82.0032,2.637,4.49,1111122 
SCCF RECON,ioos:station:SCCF:13:1,2008-10-03T07:00:00Z,26.5255,-82.0032,2.67,4.56,1111122 
SCCF RECON,ioos:station:SCCF:13:1,2008-10-03T08:00:00Z,26.5255,-82.0032,2.67,4.43,1111122 
SCCF RECON,ioos:station:SCCF:13:1,2008-10-03T09:00:00Z,26.5255,-82.0032,2.61,4.21,1111122 
SCCF RECON,ioos:station:SCCF:13:1,2008-10-03T10:00:00Z,26.5255,-82.0032,2.5,4.25,1111122 
SCCF RECON,ioos:station:SCCF:13:1,2008-10-03T11:00:00Z,26.5255,-82.0032,2.382,4.43,1111122 
SCCF RECON,ioos:station:SCCF:13:1,2008-10-03T12:00:00Z,26.5255,-82.0032,2.291,4.99,1111122 
SCCF RECON,ioos:station:SCCF:13:1,2008-10-03T13:00:00Z,26.5255,-82.0032,2.211,5.23,1111122 
SCCF RECON,ioos:station:SCCF:13:1,2008-10-03T14:00:00Z,26.5255,-82.0032,2.139,5.02,1111122 
SCCF RECON,ioos:station:SCCF:13:1,2008-10-03T15:00:00Z,26.5255,-82.0032,2.1,4.99,1111122 
SCCF RECON,ioos:station:SCCF:13:1,2008-10-03T16:00:00Z,26.5255,-82.0032,2.12,4.97,1111122 
SCCF RECON,ioos:station:SCCF:13:1,2008-10-03T17:00:00Z,26.5255,-82.0032,2.21,5.08,1111122 
SCCF RECON,ioos:station:SCCF:13:1,2008-10-03T18:00:00Z,26.5255,-82.0032,2.31,5.0,1111122 
SCCF RECON,ioos:station:SCCF:13:1,2008-10-03T19:00:00Z,26.5255,-82.0032,2.36,4.9,1111122 
SCCF RECON,ioos:station:SCCF:13:1,2008-10-03T20:00:00Z,26.5255,-82.0032,2.409,4.65,1111122 
SCCF RECON,ioos:station:SCCF:13:1,2008-10-03T21:00:00Z,26.5255,-82.0032,2.44,4.81,1111122 
SCCF RECON,ioos:station:SCCF:13:1,2008-10-03T22:00:00Z,26.5255,-82.0032,2.44,4.98,1111122 
SCCF RECON,ioos:station:SCCF:13:1,2008-10-03T23:00:00Z,26.5255,-82.0032,2.42,4.8,1111122 
SCCF RECON,ioos:station:SCCF:13:1,2008-10-04T00:00:00Z,26.5255,-82.0032,2.39,4.73,1111122 
SCCF RECON,ioos:station:SCCF:13:1,2008-10-04T01:00:00Z,26.5255,-82.0032,2.354,4.94,1111122 
SCCF RECON,ioos:station:SCCF:13:1,2008-10-04T02:00:00Z,26.5255,-82.0032,2.38,4.59,1111122 
SCCF RECON,ioos:station:SCCF:13:1,2008-10-04T03:00:00Z,26.5255,-82.0032,2.43,3.96,1111122 
SCCF RECON,ioos:station:SCCF:13:1,2008-10-04T04:00:00Z,26.5255,-82.0032,2.48,4.11,1111122 
SCCF RECON,ioos:station:SCCF:13:1,2008-10-04T05:00:00Z,26.5255,-82.0032,2.531,4.18,1111122 
SCCF RECON,ioos:station:SCCF:13:1,2008-10-04T06:00:00Z,26.5255,-82.0032,2.59,4.29,1111122 
SCCF RECON,ioos:station:SCCF:13:1,2008-10-04T07:00:00Z,26.5255,-82.0032,2.61,4.35,1111122 
SCCF RECON,ioos:station:SCCF:13:1,2008-10-04T08:00:00Z,26.5255,-82.0032,2.602,4.26,1111122 
SCCF RECON,ioos:station:SCCF:13:1,2008-10-04T09:00:00Z,26.5255,-82.0032,2.55,4.38,1111122 
SCCF RECON,ioos:station:SCCF:13:1,2008-10-04T10:00:00Z,26.5255,-82.0032,2.48,4.27,1111122 
SCCF RECON,ioos:station:SCCF:13:1,2008-10-04T11:00:00Z,26.5255,-82.0032,2.38,4.31,1111122 
SCCF RECON,ioos:station:SCCF:13:1,2008-10-04T12:00:00Z,26.5255,-82.0032,2.29,5.05,1111122 
SCCF RECON,ioos:station:SCCF:13:1,2008-10-04T13:00:00Z,26.5255,-82.0032,2.204,5.2,1111122 
SCCF RECON,ioos:station:SCCF:13:1,2008-10-04T14:00:00Z,26.5255,-82.0032,2.12,5.2,1111122 
SCCF RECON,ioos:station:SCCF:13:1,2008-10-04T15:00:00Z,26.5255,-82.0032,2.06,5.15,1111122 
SCCF RECON,ioos:station:SCCF:13:1,2008-10-04T16:00:00Z,26.5255,-82.0032,2.041,5.19,1111122 
SCCF RECON,ioos:station:SCCF:13:1,2008-10-04T17:00:00Z,26.5255,-82.0032,2.073,5.27,1111122 
SCCF RECON,ioos:station:SCCF:13:1,2008-10-04T18:00:00Z,26.5255,-82.0032,2.17,5.33,1111122 
SCCF RECON,ioos:station:SCCF:13:1,2008-10-04T19:00:00Z,26.5255,-82.0032,2.23,5.15,1111122 
SCCF RECON,ioos:station:SCCF:13:1,2008-10-04T20:00:00Z,26.5255,-82.0032,2.28,4.93,1111122 
SCCF RECON,ioos:station:SCCF:13:1,2008-10-04T21:00:00Z,26.5255,-82.0032,2.32,4.44,1111122 
SCCF RECON,ioos:station:SCCF:13:1,2008-10-04T22:00:00Z,26.5255,-82.0032,2.319,4.68,1111122 
SCCF RECON,ioos:station:SCCF:13:1,2008-10-04T23:00:00Z,26.5255,-82.0032,2.281,4.73,1111122 
SCCF RECON,ioos:station:SCCF:13:1,2008-10-05T00:00:00Z,26.5255,-82.0032,2.28,4.76,1111122 
SCCF RECON,ioos:station:SCCF:13:1,2008-10-05T01:00:00Z,26.5255,-82.0032,2.3,4.41,1111122 
SCCF RECON,ioos:station:SCCF:13:1,2008-10-05T02:00:00Z,26.5255,-82.0032,2.304,4.55,1111122 
SCCF RECON,ioos:station:SCCF:13:1,2008-10-05T03:00:00Z,26.5255,-82.0032,2.32,4.4,1111122 
SCCF RECON,ioos:station:SCCF:13:1,2008-10-05T04:00:00Z,26.5255,-82.0032,2.36,4.45,1111122 
SCCF RECON,ioos:station:SCCF:13:1,2008-10-05T05:00:00Z,26.5255,-82.0032,2.45,4.75,1111122 
SCCF RECON,ioos:station:SCCF:13:1,2008-10-05T06:00:00Z,26.5255,-82.0032,2.514,4.73,1111122 
SCCF RECON,ioos:station:SCCF:13:1,2008-10-05T07:00:00Z,26.5255,-82.0032,2.53,4.8,1111122 
SCCF RECON,ioos:station:SCCF:13:1,2008-10-05T08:00:00Z,26.5255,-82.0032,2.57,4.87,1111122 
SCCF RECON,ioos:station:SCCF:13:1,2008-10-05T09:00:00Z,26.5255,-82.0032,2.58,4.82,1111122 
SCCF RECON,ioos:station:SCCF:13:1,2008-10-05T10:00:00Z,26.5255,-82.0032,2.58,4.78,1111122 
SCCF RECON,ioos:station:SCCF:13:1,2008-10-05T11:00:00Z,26.5255,-82.0032,2.535,4.68,1111122 
SCCF RECON,ioos:station:SCCF:13:1,2008-10-05T12:00:00Z,26.5255,-82.0032,2.44,4.79,1111122 
SCCF RECON,ioos:station:SCCF:13:1,2008-10-05T13:00:00Z,26.5255,-82.0032,2.33,4.83,1111122 
SCCF RECON,ioos:station:SCCF:13:1,2008-10-05T14:00:00Z,26.5255,-82.0032,2.24,5.72,1111122 
SCCF RECON,ioos:station:SCCF:13:1,2008-10-05T15:00:00Z,26.5255,-82.0032,2.171,5.83,1111122 
SCCF RECON,ioos:station:SCCF:13:1,2008-10-05T16:00:00Z,26.5255,-82.0032,2.124,5.68,1111122 
SCCF RECON,ioos:station:SCCF:13:1,2008-10-05T17:00:00Z,26.5255,-82.0032,2.08,5.7,1111122 
SCCF RECON,ioos:station:SCCF:13:1,2008-10-05T18:00:00Z,26.5255,-82.0032,2.126,5.71,1111122 
SCCF RECON,ioos:station:SCCF:13:1,2008-10-05T19:00:00Z,26.5255,-82.0032,2.2,5.69,1111122 
SCCF RECON,ioos:station:SCCF:13:1,2008-10-05T20:00:00Z,26.5255,-82.0032,2.254,5.54,1111122 
SCCF RECON,ioos:station:SCCF:13:1,2008-10-05T21:00:00Z,26.5255,-82.0032,2.302,5.0,1111122 
SCCF RECON,ioos:station:SCCF:13:1,2008-10-05T22:00:00Z,26.5255,-82.0032,2.332,4.71,1111122 
SCCF RECON,ioos:station:SCCF:13:1,2008-10-05T23:00:00Z,26.5255,-82.0032,2.37,5.41,1111122 
SCCF RECON,ioos:station:SCCF:13:1,2008-10-06T00:00:00Z,26.5255,-82.0032,2.4,5.57,1111122 
SCCF RECON,ioos:station:SCCF:13:1,2008-10-06T01:00:00Z,26.5255,-82.0032,2.4,5.28,1111122 
SCCF RECON,ioos:station:SCCF:13:1,2008-10-06T02:00:00Z,26.5255,-82.0032,2.4,5.16,1111122 
SCCF RECON,ioos:station:SCCF:13:1,2008-10-06T03:00:00Z,26.5255,-82.0032,2.39,5.2,1111122 
SCCF RECON,ioos:station:SCCF:13:1,2008-10-06T04:00:00Z,26.5255,-82.0032,2.395,4.82,1111122 
SCCF RECON,ioos:station:SCCF:13:1,2008-10-06T05:00:00Z,26.5255,-82.0032,2.4,4.75,1111122 
SCCF RECON,ioos:station:SCCF:13:1,2008-10-06T06:00:00Z,26.5255,-82.0032,2.44,5.04,1111122 
SCCF RECON,ioos:station:SCCF:13:1,2008-10-06T07:00:00Z,26.5255,-82.0032,2.5,4.96,1111122 
SCCF RECON,ioos:station:SCCF:13:1,2008-10-06T08:00:00Z,26.5255,-82.0032,2.562,4.88,1111122 
SCCF RECON,ioos:station:SCCF:13:1,2008-10-06T09:00:00Z,26.5255,-82.0032,2.59,4.85,1111122 
SCCF RECON,ioos:station:SCCF:13:1,2008-10-06T10:00:00Z,26.5255,-82.0032,2.55,4.74,1111122 
SCCF RECON,ioos:station:SCCF:13:1,2008-10-06T11:00:00Z,26.5255,-82.0032,2.49,4.69,1111122 
SCCF RECON,ioos:station:SCCF:13:1,2008-10-06T12:00:00Z,26.5255,-82.0032,2.44,4.6,1111122 
SCCF RECON,ioos:station:SCCF:13:1,2008-10-06T13:00:00Z,26.5255,-82.0032,2.38,4.75,1111122 
SCCF RECON,ioos:station:SCCF:13:1,2008-10-06T14:00:00Z,26.5255,-82.0032,2.303,5.06,1111122 
SCCF RECON,ioos:station:SCCF:13:1,2008-10-06T15:00:00Z,26.5255,-82.0032,2.24,5.58,1111122 
SCCF RECON,ioos:station:SCCF:13:1,2008-10-06T16:00:00Z,26.5255,-82.0032,2.19,5.65,1111122 
SCCF RECON,ioos:station:SCCF:13:1,2008-10-06T17:00:00Z,26.5255,-82.0032,2.15,5.56,1111122 
SCCF RECON,ioos:station:SCCF:13:1,2008-10-06T18:00:00Z,26.5255,-82.0032,2.141,5.51,1111122 
SCCF RECON,ioos:station:SCCF:13:1,2008-10-06T19:00:00Z,26.5255,-82.0032,2.173,5.53,1111122 
SCCF RECON,ioos:station:SCCF:13:1,2008-10-06T20:00:00Z,26.5255,-82.0032,2.23,5.49,1111122 
SCCF RECON,ioos:station:SCCF:13:1,2008-10-06T21:00:00Z,26.5255,-82.0032,2.292,4.78,1111122 
SCCF RECON,ioos:station:SCCF:13:1,2008-10-06T22:00:00Z,26.5255,-82.0032,2.34,4.61,1111122 
SCCF RECON,ioos:station:SCCF:13:1,2008-10-06T23:00:00Z,26.5255,-82.0032,2.37,4.34,1111122 
SCCF RECON,ioos:station:SCCF:13:1,2008-10-07T00:00:00Z,26.5255,-82.0032,2.43,4.48,1111122 
SCCF RECON,ioos:station:SCCF:13:1,2008-10-07T01:00:00Z,26.5255,-82.0032,2.47,5.29,1111122 
SCCF RECON,ioos:station:SCCF:13:1,2008-10-07T02:00:00Z,26.5255,-82.0032,2.49,5.34,1111122 
SCCF RECON,ioos:station:SCCF:13:1,2008-10-07T03:00:00Z,26.5255,-82.0032,2.45,5.15,1111122 
SCCF RECON,ioos:station:SCCF:13:1,2008-10-07T04:00:00Z,26.5255,-82.0032,2.43,4.85,1111122 
SCCF RECON,ioos:station:SCCF:13:1,2008-10-07T05:00:00Z,26.5255,-82.0032,2.45,4.64,1111122 
SCCF RECON,ioos:station:SCCF:13:1,2008-10-07T06:00:00Z,26.5255,-82.0032,2.44,4.87,1111122 
SCCF RECON,ioos:station:SCCF:13:1,2008-10-07T07:00:00Z,26.5255,-82.0032,2.45,4.91,1111122 
SCCF RECON,ioos:station:SCCF:13:1,2008-10-07T08:00:00Z,26.5255,-82.0032,2.52,4.85,1111122 
SCCF RECON,ioos:station:SCCF:13:1,2008-10-07T09:00:00Z,26.5255,-82.0032,2.57,4.77,1111122 
SCCF RECON,ioos:station:SCCF:13:1,2008-10-07T10:00:00Z,26.5255,-82.0032,2.59,4.73,1111122 
SCCF RECON,ioos:station:SCCF:13:1,2008-10-07T11:00:00Z,26.5255,-82.0032,2.554,4.63,1111122 
SCCF RECON,ioos:station:SCCF:13:1,2008-10-07T12:00:00Z,26.5255,-82.0032,2.491,4.43,1111122 
SCCF RECON,ioos:station:SCCF:13:1,2008-10-07T13:00:00Z,26.5255,-82.0032,2.43,4.65,1111122 
SCCF RECON,ioos:station:SCCF:13:1,2008-10-07T14:00:00Z,26.5255,-82.0032,2.36,4.68,1111122 
SCCF RECON,ioos:station:SCCF:13:1,2008-10-07T15:00:00Z,26.5255,-82.0032,2.3,5.54,1111122 
SCCF RECON,ioos:station:SCCF:13:1,2008-10-07T16:00:00Z,26.5255,-82.0032,2.23,5.81,1111122 
SCCF RECON,ioos:station:SCCF:13:1,2008-10-07T17:00:00Z,26.5255,-82.0032,2.16,5.81,1111122 
SCCF RECON,ioos:station:SCCF:13:1,2008-10-07T18:00:00Z,26.5255,-82.0032,2.1,5.82,1111122 
SCCF RECON,ioos:station:SCCF:13:1,2008-10-07T19:00:00Z,26.5255,-82.0032,2.082,5.82,1111122 
SCCF RECON,ioos:station:SCCF:13:1,2008-10-07T20:00:00Z,26.5255,-82.0032,2.11,5.84,1111122 
SCCF RECON,ioos:station:SCCF:13:1,2008-10-07T21:00:00Z,26.5255,-82.0032,2.192,5.89,1111122 
SCCF RECON,ioos:station:SCCF:13:1,2008-10-07T22:00:00Z,26.5255,-82.0032,2.23,5.18,1111122 
SCCF RECON,ioos:station:SCCF:13:1,2008-10-07T23:00:00Z,26.5255,-82.0032,2.287,4.64,1111122 
SCCF RECON,ioos:station:SCCF:13:1,2008-10-08T00:00:00Z,26.5255,-82.0032,2.381,4.67,1111122 
SCCF RECON,ioos:station:SCCF:13:1,2008-10-08T01:00:00Z,26.5255,-82.0032,2.431,5.55,1111122 
SCCF RECON,ioos:station:SCCF:13:1,2008-10-08T02:00:00Z,26.5255,-82.0032,2.452,5.51,1111122 
SCCF RECON,ioos:station:SCCF:13:1,2008-10-08T03:00:00Z,26.5255,-82.0032,2.46,5.59,1111122 
SCCF RECON,ioos:station:SCCF:13:1,2008-10-08T04:00:00Z,26.5255,-82.0032,2.46,5.5,1111122 
SCCF RECON,ioos:station:SCCF:13:1,2008-10-08T05:00:00Z,26.5255,-82.0032,2.46,5.36,1111122 
SCCF RECON,ioos:station:SCCF:13:1,2008-10-08T06:00:00Z,26.5255,-82.0032,2.46,5.11,1111122 
SCCF RECON,ioos:station:SCCF:13:1,2008-10-08T07:00:00Z,26.5255,-82.0032,2.46,5.03,1111122 
SCCF RECON,ioos:station:SCCF:13:1,2008-10-08T08:00:00Z,26.5255,-82.0032,2.47,5.04,1111122 
SCCF RECON,ioos:station:SCCF:13:1,2008-10-08T09:00:00Z,26.5255,-82.0032,2.55,5.2,1111122 
SCCF RECON,ioos:station:SCCF:13:1,2008-10-08T10:00:00Z,26.5255,-82.0032,2.59,5.0,1111122 
SCCF RECON,ioos:station:SCCF:13:1,2008-10-08T11:00:00Z,26.5255,-82.0032,2.6,5.02,1111122 
SCCF RECON,ioos:station:SCCF:13:1,2008-10-08T12:00:00Z,26.5255,-82.0032,2.61,4.92,1111122 
SCCF RECON,ioos:station:SCCF:13:1,2008-10-08T13:00:00Z,26.5255,-82.0032,2.61,4.86,1111122 
SCCF RECON,ioos:station:SCCF:13:1,2008-10-08T14:00:00Z,26.5255,-82.0032,2.57,4.64,1111122 
SCCF RECON,ioos:station:SCCF:13:1,2008-10-08T15:00:00Z,26.5255,-82.0032,2.49,4.85,1111122 
SCCF RECON,ioos:station:SCCF:13:1,2008-10-08T16:00:00Z,26.5255,-82.0032,2.399,4.77,1111122 
SCCF RECON,ioos:station:SCCF:13:1,2008-10-08T17:00:00Z,26.5255,-82.0032,2.32,5.21,1111122 
SCCF RECON,ioos:station:SCCF:13:1,2008-10-08T18:00:00Z,26.5255,-82.0032,2.24,5.55,1111122 
SCCF RECON,ioos:station:SCCF:13:1,2008-10-08T19:00:00Z,26.5255,-82.0032,2.168,5.59,1111122 
SCCF RECON,ioos:station:SCCF:13:1,2008-10-08T20:00:00Z,26.5255,-82.0032,2.149,5.59,1111122 
SCCF RECON,ioos:station:SCCF:13:1,2008-10-08T21:00:00Z,26.5255,-82.0032,2.17,5.42,1111122 
SCCF RECON,ioos:station:SCCF:13:1,2008-10-08T22:00:00Z,26.5255,-82.0032,2.24,5.46,1111122 
SCCF RECON,ioos:station:SCCF:13:1,2008-10-08T23:00:00Z,26.5255,-82.0032,2.3,5.23,1111122 
SCCF RECON,ioos:station:SCCF:13:1,2008-10-09T00:00:00Z,26.5255,-82.0032,2.349,4.82,1111122 
SCCF RECON,ioos:station:SCCF:13:1,2008-10-09T01:00:00Z,26.5255,-82.0032,2.41,4.85,1111122 
SCCF RECON,ioos:station:SCCF:13:1,2008-10-09T02:00:00Z,26.5255,-82.0032,2.48,5.51,1111122 
SCCF RECON,ioos:station:SCCF:13:1,2008-10-09T03:00:00Z,26.5255,-82.0032,2.53,5.89,1111122 
SCCF RECON,ioos:station:SCCF:13:1,2008-10-09T04:00:00Z,26.5255,-82.0032,2.55,5.69,1111122 
SCCF RECON,ioos:station:SCCF:13:1,2008-10-09T05:00:00Z,26.5255,-82.0032,2.55,5.63,1111122 
SCCF RECON,ioos:station:SCCF:13:1,2008-10-09T06:00:00Z,26.5255,-82.0032,2.49,5.61,1111122 
SCCF RECON,ioos:station:SCCF:13:1,2008-10-09T07:00:00Z,26.5255,-82.0032,2.43,5.61,1111122 
SCCF RECON,ioos:station:SCCF:13:1,2008-10-09T08:00:00Z,26.5255,-82.0032,2.41,5.42,1111122 
SCCF RECON,ioos:station:SCCF:13:1,2008-10-09T09:00:00Z,26.5255,-82.0032,2.42,5.28,1111122 
SCCF RECON,ioos:station:SCCF:13:1,2008-10-09T10:00:00Z,26.5255,-82.0032,2.47,5.18,1111122 
SCCF RECON,ioos:station:SCCF:13:1,2008-10-09T11:00:00Z,26.5255,-82.0032,2.56,5.09,1111122 
SCCF RECON,ioos:station:SCCF:13:1,2008-10-09T12:00:00Z,26.5255,-82.0032,2.59,5.1,1111122 
SCCF RECON,ioos:station:SCCF:13:1,2008-10-09T13:00:00Z,26.5255,-82.0032,2.6,5.22,1111122 
SCCF RECON,ioos:station:SCCF:13:1,2008-10-09T14:00:00Z,26.5255,-82.0032,2.62,5.17,1111122 
SCCF RECON,ioos:station:SCCF:13:1,2008-10-09T15:00:00Z,26.5255,-82.0032,2.62,5.22,1111122 
SCCF RECON,ioos:station:SCCF:13:1,2008-10-09T16:00:00Z,26.5255,-82.0032,2.56,5.01,1111122 
SCCF RECON,ioos:station:SCCF:13:1,2008-10-09T17:00:00Z,26.5255,-82.0032,2.44,5.17,1111122 
SCCF RECON,ioos:station:SCCF:13:1,2008-10-09T18:00:00Z,26.5255,-82.0032,2.34,5.2,1111122 
SCCF RECON,ioos:station:SCCF:13:1,2008-10-09T19:00:00Z,26.5255,-82.0032,2.26,5.34,1111122 
SCCF RECON,ioos:station:SCCF:13:1,2008-10-09T20:00:00Z,26.5255,-82.0032,2.19,5.43,1111122 
SCCF RECON,ioos:station:SCCF:13:1,2008-10-09T21:00:00Z,26.5255,-82.0032,2.15,5.46,1111122 
SCCF RECON,ioos:station:SCCF:13:1,2008-10-09T22:00:00Z,26.5255,-82.0032,2.177,5.3,1111122 
SCCF RECON,ioos:station:SCCF:13:1,2008-10-09T23:00:00Z,26.5255,-82.0032,2.26,5.25,1111122 
SCCF RECON,ioos:station:SCCF:13:1,2008-10-10T00:00:00Z,26.5255,-82.0032,2.35,5.15,1111122 
SCCF RECON,ioos:station:SCCF:13:1,2008-10-10T01:00:00Z,26.5255,-82.0032,2.43,5.05,1111122 
SCCF RECON,ioos:station:SCCF:13:1,2008-10-10T02:00:00Z,26.5255,-82.0032,2.49,5.19,1111122 
SCCF RECON,ioos:station:SCCF:13:1,2008-10-10T03:00:00Z,26.5255,-82.0032,2.53,5.36,1111122 
SCCF RECON,ioos:station:SCCF:13:1,2008-10-10T04:00:00Z,26.5255,-82.0032,2.55,5.34,1111122 
SCCF RECON,ioos:station:SCCF:13:1,2008-10-10T05:00:00Z,26.5255,-82.0032,2.54,5.3,1111122 
SCCF RECON,ioos:station:SCCF:13:1,2008-10-10T06:00:00Z,26.5255,-82.0032,2.5,5.22,1111122 
SCCF RECON,ioos:station:SCCF:13:1,2008-10-10T07:00:00Z,26.5255,-82.0032,2.421,5.36,1111122 
SCCF RECON,ioos:station:SCCF:13:1,2008-10-10T08:00:00Z,26.5255,-82.0032,2.36,5.06,1111122 
SCCF RECON,ioos:station:SCCF:13:1,2008-10-10T09:00:00Z,26.5255,-82.0032,2.33,5.08,1111122 
SCCF RECON,ioos:station:SCCF:13:1,2008-10-10T10:00:00Z,26.5255,-82.0032,2.36,5.01,1111122 
SCCF RECON,ioos:station:SCCF:13:1,2008-10-10T11:00:00Z,26.5255,-82.0032,2.45,4.4,1111122 
SCCF RECON,ioos:station:SCCF:13:1,2008-10-10T12:00:00Z,26.5255,-82.0032,2.518,4.76,1111122 
SCCF RECON,ioos:station:SCCF:13:1,2008-10-10T13:00:00Z,26.5255,-82.0032,2.562,4.81,1111122 
SCCF RECON,ioos:station:SCCF:13:1,2008-10-10T14:00:00Z,26.5255,-82.0032,2.592,5.0,1111122 
SCCF RECON,ioos:station:SCCF:13:1,2008-10-10T15:00:00Z,26.5255,-82.0032,2.601,5.0,1111122 
SCCF RECON,ioos:station:SCCF:13:1,2008-10-10T16:00:00Z,26.5255,-82.0032,2.571,5.17,1111122 
SCCF RECON,ioos:station:SCCF:13:1,2008-10-10T17:00:00Z,26.5255,-82.0032,2.491,5.05,1111122 
SCCF RECON,ioos:station:SCCF:13:1,2008-10-10T18:00:00Z,26.5255,-82.0032,2.37,5.05,1111122 
SCCF RECON,ioos:station:SCCF:13:1,2008-10-10T19:00:00Z,26.5255,-82.0032,2.27,5.1,1111122 
SCCF RECON,ioos:station:SCCF:13:1,2008-10-10T20:00:00Z,26.5255,-82.0032,2.19,5.28,1111122 
SCCF RECON,ioos:station:SCCF:13:1,2008-10-10T21:00:00Z,26.5255,-82.0032,2.13,5.22,1111122 
SCCF RECON,ioos:station:SCCF:13:1,2008-10-10T22:00:00Z,26.5255,-82.0032,2.11,5.3,1111122 
SCCF RECON,ioos:station:SCCF:13:1,2008-10-10T23:00:00Z,26.5255,-82.0032,2.17,5.1,1111122 
SCCF RECON,ioos:station:SCCF:13:1,2008-10-11T00:00:00Z,26.5255,-82.0032,2.29,5.14,1111122 
SCCF RECON,ioos:station:SCCF:13:1,2008-10-11T01:00:00Z,26.5255,-82.0032,2.37,4.88,1111122 
SCCF RECON,ioos:station:SCCF:13:1,2008-10-11T02:00:00Z,26.5255,-82.0032,2.43,4.91,1111122 
SCCF RECON,ioos:station:SCCF:13:1,2008-10-11T03:00:00Z,26.5255,-82.0032,2.48,5.09,1111122 
SCCF RECON,ioos:station:SCCF:13:1,2008-10-11T04:00:00Z,26.5255,-82.0032,2.53,5.48,1111122 
SCCF RECON,ioos:station:SCCF:13:1,2008-10-11T05:00:00Z,26.5255,-82.0032,2.53,5.61,1111122 
SCCF RECON,ioos:station:SCCF:13:1,2008-10-11T06:00:00Z,26.5255,-82.0032,2.47,5.57,1111122 
SCCF RECON,ioos:station:SCCF:13:1,2008-10-11T07:00:00Z,26.5255,-82.0032,2.36,5.63,1111122 
SCCF RECON,ioos:station:SCCF:13:1,2008-10-11T08:00:00Z,26.5255,-82.0032,2.265,5.04,1111122 
SCCF RECON,ioos:station:SCCF:13:1,2008-10-11T09:00:00Z,26.5255,-82.0032,2.22,5.18,1111122 
SCCF RECON,ioos:station:SCCF:13:1,2008-10-11T10:00:00Z,26.5255,-82.0032,2.23,5.3,1111122 
SCCF RECON,ioos:station:SCCF:13:1,2008-10-11T11:00:00Z,26.5255,-82.0032,2.29,5.31,1111122 
SCCF RECON,ioos:station:SCCF:13:1,2008-10-11T12:00:00Z,26.5255,-82.0032,2.39,4.84,1111122 
SCCF RECON,ioos:station:SCCF:13:1,2008-10-11T13:00:00Z,26.5255,-82.0032,2.485,4.69,1111122 
SCCF RECON,ioos:station:SCCF:13:1,2008-10-11T14:00:00Z,26.5255,-82.0032,2.55,4.99,1111122 
SCCF RECON,ioos:station:SCCF:13:1,2008-10-11T15:00:00Z,26.5255,-82.0032,2.591,5.11,1111122 
SCCF RECON,ioos:station:SCCF:13:1,2008-10-11T16:00:00Z,26.5255,-82.0032,2.6,5.29,1111122 
SCCF RECON,ioos:station:SCCF:13:1,2008-10-11T17:00:00Z,26.5255,-82.0032,2.56,5.07,1111122 
SCCF RECON,ioos:station:SCCF:13:1,2008-10-11T18:00:00Z,26.5255,-82.0032,2.46,5.08,1111122 
SCCF RECON,ioos:station:SCCF:13:1,2008-10-11T19:00:00Z,26.5255,-82.0032,2.32,5.25,1111122 
SCCF RECON,ioos:station:SCCF:13:1,2008-10-11T20:00:00Z,26.5255,-82.0032,2.226,5.61,1111122 
SCCF RECON,ioos:station:SCCF:13:1,2008-10-11T21:00:00Z,26.5255,-82.0032,2.152,5.6,1111122 
SCCF RECON,ioos:station:SCCF:13:1,2008-10-11T22:00:00Z,26.5255,-82.0032,2.1,5.6,1111122 
SCCF RECON,ioos:station:SCCF:13:1,2008-10-11T23:00:00Z,26.5255,-82.0032,2.09,5.49,1111122 
SCCF RECON,ioos:station:SCCF:13:1,2008-10-12T00:00:00Z,26.5255,-82.0032,2.17,5.49,1111122 
SCCF RECON,ioos:station:SCCF:13:1,2008-10-12T01:00:00Z,26.5255,-82.0032,2.282,5.42,1111122 
SCCF RECON,ioos:station:SCCF:13:1,2008-10-12T02:00:00Z,26.5255,-82.0032,2.373,5.31,1111122 
SCCF RECON,ioos:station:SCCF:13:1,2008-10-12T03:00:00Z,26.5255,-82.0032,2.465,5.25,1111122 
SCCF RECON,ioos:station:SCCF:13:1,2008-10-12T04:00:00Z,26.5255,-82.0032,2.51,5.49,1111122 
SCCF RECON,ioos:station:SCCF:13:1,2008-10-12T05:00:00Z,26.5255,-82.0032,2.53,5.65,1111122 
SCCF RECON,ioos:station:SCCF:13:1,2008-10-12T06:00:00Z,26.5255,-82.0032,2.46,5.62,1111122 
SCCF RECON,ioos:station:SCCF:13:1,2008-10-12T07:00:00Z,26.5255,-82.0032,2.361,5.62,1111122 
SCCF RECON,ioos:station:SCCF:13:1,2008-10-12T08:00:00Z,26.5255,-82.0032,2.25,5.24,1111122 
SCCF RECON,ioos:station:SCCF:13:1,2008-10-12T09:00:00Z,26.5255,-82.0032,2.178,5.25,1111122 
SCCF RECON,ioos:station:SCCF:13:1,2008-10-12T10:00:00Z,26.5255,-82.0032,2.13,5.21,1111122 
SCCF RECON,ioos:station:SCCF:13:1,2008-10-12T11:00:00Z,26.5255,-82.0032,2.15,5.21,1111122 
SCCF RECON,ioos:station:SCCF:13:1,2008-10-12T12:00:00Z,26.5255,-82.0032,2.26,5.24,1111122 
SCCF RECON,ioos:station:SCCF:13:1,2008-10-12T13:00:00Z,26.5255,-82.0032,2.39,4.88,1111122 
SCCF RECON,ioos:station:SCCF:13:1,2008-10-12T14:00:00Z,26.5255,-82.0032,2.462,4.79,1111122 
SCCF RECON,ioos:station:SCCF:13:1,2008-10-12T15:00:00Z,26.5255,-82.0032,2.521,5.14,1111122 
SCCF RECON,ioos:station:SCCF:13:1,2008-10-12T16:00:00Z,26.5255,-82.0032,2.59,5.21,1111122 